Time,TemperatureF,DewpointF,PressureIn,WindDirection,WindDirectionDegrees,WindSpeedMPH,WindSpeedGustMPH,Humidity,HourlyPrecipIn,Conditions,Clouds,dailyrainin,SolarRadiationWatts/m^2,SoftwareType,DateUTC
2013-02-18 00:01:00,70.0,62.0,30.04,ESE,107,3.0,13.0,75,0.00,,,0.00,0.000000,,2013-02-18 10:01:00,
2013-02-18 00:11:00,70.0,62.0,30.04,ESE,107,3.0,13.0,75,0.00,,,0.00,0.000000,,2013-02-18 10:11:00,
2013-02-18 00:42:00,70.0,57.0,30.03,ESE,107,4.0,6.0,64,0.00,,,0.00,0.000000,,2013-02-18 10:42:00,
2013-02-18 00:52:00,70.0,57.0,30.03,ESE,107,4.0,6.0,64,0.00,,,0.00,0.000000,,2013-02-18 10:52:00,
2013-02-18 01:01:00,70.0,57.0,30.03,ESE,107,4.0,6.0,64,0.00,,,0.00,0.000000,,2013-02-18 11:01:00,
2013-02-18 01:11:00,70.0,57.0,30.03,ESE,107,4.0,6.0,64,0.00,,,0.00,0.000000,,2013-02-18 11:11:00,
2013-02-18 01:43:00,71.0,58.0,30.02,East,96,5.0,10.0,64,0.00,,,0.00,0.000000,,2013-02-18 11:43:00,
2013-02-18 01:53:00,71.0,58.0,30.02,East,96,5.0,10.0,64,0.00,,,0.00,0.000000,,2013-02-18 11:53:00,
2013-02-18 02:02:00,71.0,58.0,30.02,East,96,5.0,10.0,64,0.00,,,0.00,0.000000,,2013-02-18 12:02:00,
2013-02-18 02:11:00,71.0,58.0,30.02,East,96,5.0,10.0,64,0.00,,,0.00,0.000000,,2013-02-18 12:11:00,
2013-02-18 02:42:00,71.0,59.0,30.01,ESE,117,5.0,7.0,65,0.00,,,0.00,0.000000,,2013-02-18 12:42:00,
2013-02-18 02:53:00,71.0,59.0,30.01,ESE,117,5.0,7.0,65,0.00,,,0.00,0.000000,,2013-02-18 12:53:00,
2013-02-18 03:02:00,71.0,59.0,30.01,ESE,117,5.0,7.0,65,0.00,,,0.00,0.000000,,2013-02-18 13:02:00,
2013-02-18 03:11:00,71.0,59.0,30.01,ESE,117,5.0,7.0,65,0.00,,,0.00,0.000000,,2013-02-18 13:11:00,
2013-02-18 03:42:00,71.0,59.0,29.99,ENE,74,3.0,9.0,67,0.00,,,0.00,0.000000,,2013-02-18 13:42:00,
2013-02-18 03:53:00,71.0,59.0,29.99,ENE,74,3.0,9.0,67,0.00,,,0.00,0.000000,,2013-02-18 13:53:00,
2013-02-18 04:02:00,71.0,59.0,29.99,ENE,74,3.0,9.0,67,0.00,,,0.00,0.000000,,2013-02-18 14:02:00,
2013-02-18 04:11:00,71.0,59.0,29.99,ENE,74,3.0,9.0,67,0.00,,,0.00,0.000000,,2013-02-18 14:11:00,
2013-02-18 04:42:00,69.0,60.0,29.98,NE,55,5.0,8.0,72,0.00,,,0.00,0.000000,,2013-02-18 14:42:00,
2013-02-18 04:53:00,69.0,60.0,29.98,NE,55,5.0,8.0,72,0.00,,,0.00,0.000000,,2013-02-18 14:53:00,
2013-02-18 05:01:00,69.0,60.0,29.98,NE,55,5.0,8.0,72,0.00,,,0.00,0.000000,,2013-02-18 15:01:00,
2013-02-18 05:11:00,69.0,60.0,29.98,NE,55,5.0,8.0,72,0.00,,,0.00,0.000000,,2013-02-18 15:11:00,
2013-02-18 05:42:00,69.0,61.0,29.99,ESE,112,4.0,5.0,75,0.00,,,0.00,0.000000,,2013-02-18 15:42:00,
2013-02-18 05:52:00,69.0,61.0,29.99,ESE,112,4.0,5.0,75,0.00,,,0.00,0.000000,,2013-02-18 15:52:00,
2013-02-18 06:02:00,69.0,61.0,29.99,ESE,112,4.0,5.0,75,0.00,,,0.00,0.000000,,2013-02-18 16:02:00,
2013-02-18 06:11:00,69.0,61.0,29.99,ESE,112,4.0,5.0,75,0.00,,,0.00,0.000000,,2013-02-18 16:11:00,
2013-02-18 06:43:00,70.0,59.0,30.02,SE,131,5.0,7.0,67,0.00,,,0.00,0.000000,,2013-02-18 16:43:00,
2013-02-18 06:53:00,70.0,59.0,30.02,SE,131,5.0,7.0,67,0.00,,,0.00,0.000000,,2013-02-18 16:53:00,
2013-02-18 07:03:00,70.0,59.0,30.02,SE,131,5.0,7.0,67,0.00,,,0.00,0.000000,,2013-02-18 17:03:00,
2013-02-18 07:11:00,70.0,59.0,30.02,SE,131,5.0,7.0,67,0.00,,,0.00,0.000000,,2013-02-18 17:11:00,
2013-02-18 07:43:00,71.0,59.0,30.04,ENE,77,6.0,9.0,65,0.00,,,0.00,7.000000,,2013-02-18 17:43:00,
2013-02-18 07:53:00,71.0,59.0,30.04,ENE,77,6.0,9.0,65,0.00,,,0.00,7.000000,,2013-02-18 17:53:00,
2013-02-18 08:02:00,71.0,59.0,30.04,ENE,77,6.0,9.0,65,0.00,,,0.00,7.000000,,2013-02-18 18:02:00,
2013-02-18 08:11:00,71.0,59.0,30.04,ENE,77,6.0,9.0,65,0.00,,,0.00,7.000000,,2013-02-18 18:11:00,
2013-02-18 08:43:00,76.0,61.0,30.05,NNW,341,3.0,7.0,60,0.00,,,0.00,113.000000,,2013-02-18 18:43:00,
2013-02-18 08:52:00,76.0,61.0,30.05,NNW,341,3.0,7.0,60,0.00,,,0.00,113.000000,,2013-02-18 18:52:00,
2013-02-18 09:02:00,76.0,61.0,30.05,NNW,341,3.0,7.0,60,0.00,,,0.00,113.000000,,2013-02-18 19:02:00,
2013-02-18 09:11:00,76.0,61.0,30.05,NNW,341,3.0,7.0,60,0.00,,,0.00,113.000000,,2013-02-18 19:11:00,
2013-02-18 09:43:00,78.0,62.0,30.05,NW,315,4.0,6.0,59,0.00,,,0.00,245.000000,,2013-02-18 19:43:00,
2013-02-18 09:53:00,78.0,62.0,30.05,NW,315,4.0,6.0,59,0.00,,,0.00,245.000000,,2013-02-18 19:53:00,
2013-02-18 10:01:00,78.0,62.0,30.05,NW,315,4.0,6.0,59,0.00,,,0.00,245.000000,,2013-02-18 20:01:00,
2013-02-18 10:11:00,78.0,62.0,30.05,NW,315,4.0,6.0,59,0.00,,,0.00,245.000000,,2013-02-18 20:11:00,
2013-02-18 10:42:00,77.0,63.0,30.05,NW,305,3.0,6.0,63,0.00,,,0.00,196.000000,,2013-02-18 20:42:00,
2013-02-18 10:53:00,77.0,63.0,30.05,NW,305,3.0,6.0,63,0.00,,,0.00,196.000000,,2013-02-18 20:53:00,
2013-02-18 11:02:00,77.0,63.0,30.05,NW,305,3.0,6.0,63,0.00,,,0.00,196.000000,,2013-02-18 21:02:00,
2013-02-18 11:11:00,77.0,63.0,30.05,NW,305,3.0,6.0,63,0.00,,,0.00,196.000000,,2013-02-18 21:11:00,
2013-02-18 11:43:00,78.0,63.0,30.03,SSE,157,5.0,11.0,61,0.00,,,0.00,224.000000,,2013-02-18 21:43:00,
2013-02-18 11:52:00,78.0,63.0,30.03,SSE,157,5.0,11.0,61,0.00,,,0.00,224.000000,,2013-02-18 21:52:00,
2013-02-18 12:02:00,78.0,63.0,30.03,SSE,157,5.0,11.0,61,0.00,,,0.00,224.000000,,2013-02-18 22:02:00,
2013-02-18 12:11:00,78.0,63.0,30.03,SSE,157,5.0,11.0,61,0.00,,,0.00,224.000000,,2013-02-18 22:11:00,
2013-02-18 12:43:00,80.0,64.0,30.02,SSE,149,10.0,13.0,58,0.00,,,0.00,572.000000,,2013-02-18 22:43:00,
2013-02-18 12:53:00,80.0,64.0,30.02,SSE,149,10.0,13.0,58,0.00,,,0.00,572.000000,,2013-02-18 22:53:00,
2013-02-18 13:02:00,80.0,64.0,30.02,SSE,149,10.0,13.0,58,0.00,,,0.00,572.000000,,2013-02-18 23:02:00,
2013-02-18 13:11:00,80.0,64.0,30.02,SSE,149,10.0,13.0,58,0.00,,,0.00,572.000000,,2013-02-18 23:11:00,
2013-02-18 13:43:00,80.0,63.0,29.99,SSE,167,10.0,16.0,57,0.00,,,0.00,726.000000,,2013-02-18 23:43:00,
2013-02-18 13:53:00,80.0,63.0,29.99,SSE,167,10.0,16.0,57,0.00,,,0.00,726.000000,,2013-02-18 23:53:00,
2013-02-18 14:02:00,80.0,63.0,29.99,SSE,167,10.0,16.0,57,0.00,,,0.00,726.000000,,2013-02-19 00:02:00,
2013-02-18 14:11:00,80.0,63.0,29.99,SSE,167,10.0,16.0,57,0.00,,,0.00,726.000000,,2013-02-19 00:11:00,
2013-02-18 14:44:00,80.0,63.0,29.97,South,174,10.0,16.0,56,0.00,,,0.00,617.000000,,2013-02-19 00:44:00,
2013-02-18 14:54:00,80.0,63.0,29.97,South,174,10.0,16.0,56,0.00,,,0.00,617.000000,,2013-02-19 00:54:00,
2013-02-18 15:02:00,80.0,63.0,29.97,South,174,10.0,16.0,56,0.00,,,0.00,617.000000,,2013-02-19 01:02:00,
2013-02-18 15:12:00,80.0,63.0,29.97,South,174,10.0,16.0,56,0.00,,,0.00,617.000000,,2013-02-19 01:12:00,
2013-02-18 15:45:00,80.0,64.0,29.97,SSE,160,9.0,15.0,58,0.00,,,0.00,722.000000,,2013-02-19 01:45:00,
2013-02-18 15:55:00,80.0,64.0,29.97,SSE,160,9.0,15.0,58,0.00,,,0.00,722.000000,,2013-02-19 01:55:00,
2013-02-18 16:12:00,80.0,64.0,29.97,SSE,160,9.0,15.0,58,0.00,,,0.00,722.000000,,2013-02-19 02:12:00,
2013-02-18 16:43:00,79.0,64.0,29.96,South,174,8.0,15.0,60,0.00,,,-99.99,475.000000,,2013-02-19 02:43:00,
2013-02-18 16:54:00,79.0,64.0,29.96,South,174,8.0,15.0,60,0.00,,,-99.99,475.000000,,2013-02-19 02:54:00,
2013-02-18 17:04:00,79.0,64.0,29.96,South,174,8.0,15.0,60,0.00,,,-99.99,475.000000,,2013-02-19 03:04:00,
2013-02-18 17:12:00,79.0,64.0,29.96,South,174,8.0,15.0,60,0.00,,,-99.99,475.000000,,2013-02-19 03:12:00,
2013-02-18 17:45:00,78.0,64.0,29.96,SSE,156,7.0,12.0,62,0.00,,,-99.99,242.000000,,2013-02-19 03:45:00,
2013-02-18 17:54:00,78.0,64.0,29.96,SSE,156,7.0,12.0,62,0.00,,,-99.99,242.000000,,2013-02-19 03:54:00,
2013-02-18 18:02:00,78.0,64.0,29.96,SSE,156,7.0,12.0,62,0.00,,,-99.99,242.000000,,2013-02-19 04:02:00,
2013-02-18 18:12:00,78.0,64.0,29.96,SSE,156,7.0,12.0,62,0.00,,,-99.99,242.000000,,2013-02-19 04:12:00,
2013-02-18 18:44:00,76.0,64.0,29.97,South,191,5.0,10.0,67,0.00,,,0.00,93.000000,,2013-02-19 04:44:00,
2013-02-18 18:54:00,76.0,64.0,29.97,South,191,5.0,10.0,67,0.00,,,0.00,93.000000,,2013-02-19 04:54:00,
2013-02-18 19:01:00,76.0,64.0,29.97,South,191,5.0,10.0,67,0.00,,,0.00,93.000000,,2013-02-19 05:01:00,
2013-02-18 19:12:00,76.0,64.0,29.97,South,191,5.0,10.0,67,0.00,,,0.00,93.000000,,2013-02-19 05:12:00,
2013-02-18 19:43:00,74.0,63.0,29.99,SE,129,3.0,7.0,68,0.00,,,0.00,2.000000,,2013-02-19 05:43:00,
2013-02-18 19:52:00,74.0,63.0,29.99,SE,129,3.0,7.0,68,0.00,,,0.00,2.000000,,2013-02-19 05:52:00,
2013-02-18 20:02:00,74.0,63.0,29.99,SE,129,3.0,7.0,68,0.00,,,0.00,2.000000,,2013-02-19 06:02:00,
2013-02-18 20:11:00,74.0,63.0,29.99,SE,129,3.0,7.0,68,0.00,,,0.00,2.000000,,2013-02-19 06:11:00,
2013-02-18 20:42:00,73.0,63.0,30.00,ESE,118,6.0,8.0,72,0.00,,,0.00,0.000000,,2013-02-19 06:42:00,
2013-02-18 20:52:00,73.0,63.0,30.00,ESE,118,6.0,8.0,72,0.00,,,0.00,0.000000,,2013-02-19 06:52:00,
2013-02-18 21:01:00,73.0,63.0,30.00,ESE,118,6.0,8.0,72,0.00,,,0.00,0.000000,,2013-02-19 07:01:00,
2013-02-18 21:11:00,73.0,63.0,30.00,ESE,118,6.0,8.0,72,0.00,,,0.00,0.000000,,2013-02-19 07:11:00,
2013-02-18 21:42:00,72.0,61.0,30.02,ENE,73,4.0,8.0,69,0.00,,,0.00,0.000000,,2013-02-19 07:42:00,
2013-02-18 21:52:00,72.0,61.0,30.02,ENE,73,4.0,8.0,69,0.00,,,0.00,0.000000,,2013-02-19 07:52:00,
2013-02-18 22:01:00,72.0,61.0,30.02,ENE,73,4.0,8.0,69,0.00,,,0.00,0.000000,,2013-02-19 08:01:00,
2013-02-18 22:11:00,72.0,61.0,30.02,ENE,73,4.0,8.0,69,0.00,,,0.00,0.000000,,2013-02-19 08:11:00,
2013-02-18 22:42:00,71.0,62.0,30.04,ESE,120,3.0,6.0,74,0.00,,,0.00,0.000000,,2013-02-19 08:42:00,
2013-02-18 22:52:00,71.0,62.0,30.04,ESE,120,3.0,6.0,74,0.00,,,0.00,0.000000,,2013-02-19 08:52:00,
2013-02-18 23:01:00,71.0,62.0,30.04,ESE,120,3.0,6.0,74,0.00,,,0.00,0.000000,,2013-02-19 09:01:00,
2013-02-18 23:11:00,71.0,62.0,30.04,ESE,120,3.0,6.0,74,0.00,,,0.00,0.000000,,2013-02-19 09:11:00,
2013-02-18 23:42:00,72.0,60.0,30.04,East,85,6.0,8.0,66,0.00,,,-99.99,0.000000,,2013-02-19 09:42:00,
2013-02-18 23:53:00,72.0,60.0,30.04,East,85,6.0,8.0,66,0.00,,,-99.99,0.000000,,2013-02-19 09:53:00,